星链-1714 (STARLINK-1714 )

导读 | 星芒AI

STARLINK-1714 是 SpaceX Starlink 项目中的一颗低轨通信卫星,属于第 5 批次发射的卫星群。该卫星于 2021 年 11 月 19 日由猎鹰九号火箭成功送入近地轨道,旨在为全球用户提供高速互联网服务。它运行在约 550 公里的高度,设计寿命约 5 至 7 年。STARLINK-1714 采用先进相控阵天线和激光通信技术,支持低延迟、高带宽的全球网络连接,是 SpaceX 构建全球卫星互联网系统的重要组成部分。

基本信息
目录编号:
46562
目录名称:
STARLINK-1714
国际标识:
2020-070AG
轨道中心:
EARTH
卫星名称:
星链-1714
卫星全名:
星链-1714 (STARLINK-1714 )
卫星状态:
在轨 (已飞行1897 天)
发射日期:
2020-10-06 UTC
国别 :
美国 (US)
星等 :
--
轨道信息
数据来源 国际轨道数据
星历时间: 2025-12-16T02:12:41+0800
14小时前
查看轨道信息
半长轴: 6841.373km
偏心率: 0.0006063
轨道倾角: 53.051°
近地点辐角 150.618°
升交点赤经 154.424°
平近点角 209.516°
近地点: 459.09km
远地点: 467.386km
周期: 93.859分钟
每日圈数: 15.342211
详细信息
固有亮度:
5
最大亮度:
2.5
卫星平台:
Starlink V1.0
覆盖范围:
全球
运营商:
太空探索技术公司
运营商所在国:
美国
制造商(研发单位):
太空探索技术公司
制造商所在国:
美国
使用方式:
暂无
卫星简介
星链(Starlink)计划是由太空探索技术公司(SpaceX)提出的一个巨型低轨卫星互联网星座项目,计划在2019年至2024年间在太空搭建由约1.2万颗卫星组成的“星链”网络,其中1584颗将部署在地球上空550千米处的近地轨道,并从2020年开始工作。该卫星仍在工作。
2D轨道图
3D轨道图
轨道高度分析图
轨道倾角分析图
轨道综合分析图
查看轨道综合分析图